Total_Precipitation_Accumulation
1.24 1.37 1.75 1.67 1.63 1.87 2.12 2.18 2.39 2.47 2.21 2.09 2.10 2.05 2.15 2.53 2.63 2.55 2.50 2.66 3.10 3.65 4.02 4.15 4.17 4.10 4.07 3.90 3.23 2.71 2.41 2.38 2.38 2.38 2.26 2.18 2.24 2.45 2.54 2.66 2.68 2.00 1.87
1.15 1.34 1.56 1.55 1.55 1.82 2.07 2.18 2.28 2.35 2.20 2.08 1.99 2.01 2.23 2.55 2.55 2.45 2.44 2.63 2.93 3.38 3.62 3.53 3.46 3.33 3.19 3.00 2.68 2.48 2.45 2.52 2.66 2.71 2.79 2.59 2.63 2.71 2.60 2.61 2.69 1.97 1.91
1.17 1.20 1.29 1.45 1.38 1.57 1.77 1.84 1.96 2.17 2.25 2.19 1.93 1.97 2.21 2.47 2.66 2.75 2.73 2.77 2.93 3.28 3.47 3.33 3.07 2.95 2.79 2.68 2.43 2.36 2.37 2.61 2.93 3.18 3.47 2.61 2.16 2.66 2.58 2.55 2.26 1.82 1.78
0.89 0.91 1.09 1.32 1.35 1.38 1.54 1.64 1.75 1.91 2.05 2.03 1.85 1.82 2.06 2.36 2.57 2.74 2.81 2.77 2.90 3.17 3.48 3.36 3.13 2.98 2.77 2.54 2.39 2.40 2.47 2.74 3.03 3.45 3.28 2.32 1.68 2.08 2.30 2.24 1.92 1.62 1.57
0.77 0.85 1.17 1.29 1.27 1.28 1.35 1.48 1.62 1.70 1.74 1.81 1.77 1.84 2.07 2.34 2.58 2.69 2.65 2.66 2.75 2.97 3.20 3.28 2.96 2.61 2.44 2.35 2.42 2.56 2.69 2.95 3.23 3.15 2.42 2.40 2.29 2.21 2.05 1.95 1.80 1.56 1.44
0.85 0.92 1.15 1.30 1.20 1.22 1.29 1.34 1.48 1.56 1.65 1.78 1.82 1.89 2.21 2.41 2.52 2.53 2.32 2.30 2.48 2.62 2.82 2.88 2.60 2.26 2.22 2.33 2.50 2.63 2.85 3.09 3.06 2.33 2.00 2.07 1.93 2.07 2.04 1.94 1.74 1.57 1.42
0.77 0.95 1.13 1.20 1.07 1.05 1.07 1.20 1.43 1.55 1.67 1.83 1.89 2.04 2.30 2.50 2.55 2.50 2.31 2.42 2.43 2.55 2.72 2.58 2.40 2.32 2.48 2.54 2.60 2.64 2.91 3.06 2.45 1.97 2.04 2.20 1.90 1.95 2.20 2.17 1.87 1.57 1.29
0.75 0.91 1.11 1.14 1.03 1.02 1.11 1.26 1.41 1.53 1.64 1.83 1.89 2.02 2.29 2.52 2.48 2.29 2.27 2.40 2.31 2.49 2.58 2.41 2.23 2.20 2.38 2.55 2.55 2.63 2.79 2.68 1.99 1.67 1.78 1.93 1.70 1.91 2.32 2.29 2.06 1.82 1.47
0.79 0.91 1.03 1.09 1.05 1.06 1.18 1.40 1.54 1.60 1.73 1.85 1.83 1.94 2.24 2.41 2.40 2.29 2.26 2.33 2.35 2.45 2.30 2.15 2.16 2.09 2.16 2.43 2.49 2.63 2.69 2.58 1.97 1.75 1.53 1.69 1.67 2.00 2.34 2.22 2.00 1.90 1.62
0.98 1.04 1.04 1.10 1.03 1.00 1.14 1.54 1.78 1.82 1.90 1.96 1.97 2.09 2.38 2.52 2.50 2.36 2.17 2.25 2.30 2.28 2.19 2.16 2.13 2.12 2.20 2.46 2.69 2.85 2.76 2.29 1.81 1.70 1.66 1.59 1.78 2.19 2.46 2.29 2.13 2.04 1.84
1.24 1.31 1.22 1.26 1.11 1.15 1.22 1.52 1.85 1.94 2.07 2.24 2.30 2.43 2.79 2.95 2.73 2.71 2.35 2.48 2.46 2.40 2.43 2.47 2.42 2.42 2.39 2.61 2.94 2.98 2.60 2.17 2.17 1.87 1.73 1.69 2.02 2.43 2.60 2.55 2.42 2.30 2.16
1.48 1.32 1.31 1.39 1.31 1.43 1.43 1.68 2.20 2.23 2.40 2.66 2.74 2.66 2.95 3.06 3.11 2.71 2.83 3.12 3.13 3.08 3.07 3.17 3.21 3.04 2.61 2.49 2.98 3.28 2.65 2.44 2.31 1.97 1.77 1.92 2.24 2.60 2.69 2.68 2.44 2.33 2.28
1.53 1.38 1.49 1.60 1.74 1.81 2.08 1.88 2.04 2.43 2.71 2.86 3.01 3.11 3.20 2.91 2.83 2.77 3.06 3.46 3.50 3.42 3.33 3.42 3.56 3.14 2.93 2.97 3.16 3.19 2.85 2.73 2.45 2.08 2.22 2.42 2.62 2.98 3.04 2.82 2.56 2.40 2.24
2.02 2.00 1.97 2.15 2.38 2.40 2.19 2.15 2.03 2.13 2.36 2.75 3.06 2.98 3.09 3.28 3.25 3.04 3.13 3.20 3.26 3.36 3.61 3.42 3.47 3.47 3.40 3.16 3.04 3.13 2.96 2.83 2.69 2.65 2.85 2.91 2.91 3.23 3.40 3.11 2.81 2.61 2.42
2.78 2.94 2.90 2.89 2.84 2.89 2.89 2.75 2.32 2.46 2.41 2.52 2.97 3.04 3.02 3.31 3.43 3.32 3.24 3.35 3.00 3.03 3.40 3.65 3.43 3.51 3.61 3.42 3.15 3.06 3.09 2.95 2.93 2.81 2.96 3.15 2.95 3.01 3.29 3.25 3.11 2.89 2.76
3.53 4.03 3.83 3.66 3.43 3.32 3.36 3.32 3.25 2.92 2.80 2.63 2.92 3.06 3.16 3.43 3.57 3.51 3.36 3.31 2.94 2.83 3.10 3.37 3.35 3.56 3.55 3.47 3.11 2.90 2.85 3.03 3.05 2.84 2.91 3.22 3.12 2.77 2.82 3.12 3.34 3.38 3.20
4.16 4.77 4.57 4.44 4.42 4.20 4.10 3.77 3.39 3.14 2.95 3.13 3.32 3.45 3.48 3.52 3.73 3.71 3.53 3.26 3.09 3.12 3.23 3.25 3.33 3.68 3.47 3.33 3.14 3.06 2.97 3.00 2.88 2.81 2.85 3.05 2.78 2.59 2.51 2.63 3.00 3.33 3.60
4.33 4.80 5.19 4.85 5.24 5.17 4.93 4.50 4.03 3.77 3.74 3.67 3.60 3.75 3.52 3.44 3.54 3.77 3.40 3.09 3.21 3.34 3.47 3.47 3.47 3.66 3.71 3.78 3.64 3.41 3.13 3.02 2.48 2.43 2.51 2.59 2.72 2.33 2.43 2.66 2.77 2.94 3.51
4.60 5.16 5.67 5.88 5.97 5.57 5.22 4.87 4.66 4.40 4.13 3.71 3.32 3.25 3.12 2.88 2.84 3.01 2.84 2.78 2.82 2.99 2.95 2.75 3.15 3.39 3.59 3.78 3.51 3.33 2.94 2.79 2.55 2.40 2.46 2.22 2.36 2.39 2.40 2.48 2.67 2.72 3.24
4.72 5.57 6.05 6.23 5.84 5.43 5.07 4.64 4.54 4.21 3.88 3.52 3.12 2.85 2.65 2.58 2.43 2.60 2.41 2.36 2.52 2.77 2.83 2.90 3.14 3.07 2.98 3.13 2.82 2.83 2.75 2.52 2.50 2.46 2.29 2.21 2.17 2.13 2.28 2.45 2.68 2.35 2.86
4.79 5.75 6.19 6.05 5.46 4.97 4.52 4.08 3.80 3.51 3.28 3.16 2.85 2.49 2.41 2.40 2.44 2.69 2.42 2.62 2.57 2.64 2.67 2.61 2.73 2.69 2.42 2.55 2.96 2.90 2.58 2.36 2.39 2.30 2.21 2.29 2.07 2.09 2.31 2.54 2.75 2.81 2.54
4.14 4.91 5.29 5.02 4.39 3.75 3.48 3.39 3.30 3.25 2.91 2.69 2.61 2.54 2.24 2.26 2.34 2.40 2.51 2.31 2.31 2.44 2.37 2.36 2.65 2.60 2.30 2.39 2.82 3.03 2.88 2.90 2.65 2.05 2.03 2.19 2.17 2.23 2.32 2.36 2.67 2.93 2.78
3.60 3.59 3.75 3.70 3.26 2.92 2.80 2.80 2.82 2.97 2.77 2.49 2.40 2.33 2.09 2.01 1.97 2.12 2.18 2.24 2.33 2.22 2.29 2.33 2.37 2.47 2.42 2.26 2.34 2.88 2.84 2.74 2.59 2.32 2.01 1.98 2.16 2.39 2.38 2.45 2.46 2.56 2.63
2.70 2.50 2.51 2.65 2.56 2.53 2.42 2.43 2.34 2.21 2.21 2.12 2.10 2.06 2.01 1.89 1.80 1.72 1.83 1.99 2.18 2.14 2.36 2.10 2.13 2.35 2.43 2.20 2.21 2.32 2.35 2.44 2.57 2.40 2.06 1.88 1.94 2.05 2.22 2.20 2.37 2.52 2.58
1.80 1.83 2.02 2.33 2.43 2.35 2.28 2.39 2.39 2.10 1.97 1.90 1.94 2.05 1.99 1.88 1.73 1.58 1.66 1.86 2.03 2.09 2.18 2.17 2.39 2.32 2.22 2.17 2.15 2.23 2.32 2.35 2.23 2.29 2.22 1.97 1.87 1.74 1.87 2.07 2.30 2.53 2.52
1.24 1.36 1.60 2.06 2.28 2.16 2.11 2.14 2.11 2.05 2.02 1.93 1.88 1.91 1.88 1.81 1.81 1.78 1.73 1.84 1.88 1.92 1.98 2.07 2.26 2.24 2.19 2.21 2.08 2.02 2.23 2.33 2.31 2.39 2.22 1.98 1.84 1.63 1.64 1.80 2.15 2.50 2.60